Marshfield, WI

2:53 AM CST on November 18, 2017 (GMT -0600)
Marshfield Municipal

Weather History for KMFI - August, 2014

Change the Weather History Date:

Saturday, August 30, 2014

  Actual Average Record
Temperature  
Mean Temperature 70 °F -  
Max Temperature 75 °F 79 °F 93 °F (1969)
Min Temperature 64 °F 54 °F 28 °F (1915)
Cooling Degree Days 4    
Growing Degree Days 20 (Base 50)    
Moisture  
Dew Point 64 °F    
Average Humidity 86    
Maximum Humidity 97    
Minimum Humidity 71    
Precipitation  
Precipitation 0.52 in - - ()
Sea Level Pressure  
Sea Level Pressure 29.80 in    
Wind  
Wind Speed 8 mph (North)    
Max Wind Speed 15 mph    
Max Gust Speed 24 mph    
Visibility 8 miles    
Events Rain    
Averages and records for this station are not official NWS values.
T = Trace of Precipitation, MM = Missing Value Source: NWS Daily Summary

Daily Weather History Graph

Daily Weather History Graph

Search for Another Location

Airport or City:

Trip Planner

Search our weather history database for the weather conditions in past years. The results will help you decide how hot, cold, wet, or windy it might be!

Date:

Astronomy

Aug. 30, 2014 Rise Set
Actual Time 6:20 AM CDT 7:40 PM CDT
Civil Twilight 5:50 AM CDT 8:11 PM CDT
Nautical Twilight 5:14 AM CDT 8:47 PM CDT
Astronomical Twilight 4:35 AM CDT 9:26 PM CDT
Moon 11:21 AM CDT (8/30) 10:01 PM CDT (8/30)
Length of Visible Light 14h 20m
Length of Day
13h 20m
Waxing Crescent, 23% of the Moon is Illuminated
Aug 30
Waxing Crescent
Sep 2
First Quarter
Sep 8
Full
Sep 15
Last Quarter
Sep 24
New

Hourly Weather History & Observations

Time (CDT) Temp. Dew Point Humidity Pressure Visibility Wind Dir Wind Speed Gust Speed Precip Events Conditions
12:46 AM 66.9 °F 64.9 °F 93% 29.80 in 5.0 mi ESE 13.8 mph - 0.00 in Rain Light Rain
12:54 AM 66.9 °F 64.9 °F 93% 29.79 in 3.0 mi ESE 8.1 mph - 0.02 in Rain Rain
12:58 AM 66.9 °F 66.0 °F 97% 29.81 in 2.5 mi ESE 8.1 mph - 0.02 in Rain Heavy Rain
1:15 AM 66.9 °F 66.0 °F 97% 29.81 in 1.5 mi ESE 6.9 mph - 0.20 in Rain Heavy Rain
1:30 AM 66.9 °F 64.9 °F 93% 29.80 in 2.5 mi ESE 8.1 mph - 0.28 in Rain Heavy Rain
1:37 AM 66.9 °F 64.9 °F 93% 29.79 in 2.5 mi East 5.8 mph - 0.30 in Rain Heavy Rain
1:54 AM 66.0 °F 64.9 °F 96% 29.76 in 4.0 mi East 6.9 mph - 0.34 in Rain Light Rain
2:54 AM 66.0 °F 64.9 °F 96% 29.73 in 5.0 mi ENE 5.8 mph - 0.04 in Rain Light Rain
3:14 AM 66.0 °F 64.9 °F 96% 29.75 in 4.0 mi ENE 5.8 mph - 0.00 in Rain Light Rain
3:26 AM 66.9 °F 64.9 °F 93% 29.76 in 4.0 mi Calm Calm - 0.00 in Rain Light Rain
3:36 AM 66.9 °F 64.9 °F 93% 29.75 in 2.0 mi NE 5.8 mph - 0.04 in Rain Heavy Rain
3:38 AM 66.9 °F 64.9 °F 93% 29.75 in 1.8 mi NE 3.5 mph - 0.05 in Rain Heavy Rain
3:46 AM 66.9 °F 64.9 °F 93% 29.75 in 2.5 mi NE 5.8 mph - 0.06 in Rain Light Rain
3:54 AM 66.9 °F 64.9 °F 93% 29.73 in 4.0 mi NE 3.5 mph - 0.06 in Rain Light Rain
4:13 AM 66.9 °F 64.9 °F 93% 29.75 in 2.0 mi East 5.8 mph - 0.04 in Rain Heavy Rain
4:28 AM 66.0 °F 64.9 °F 96% 29.74 in 3.0 mi East 9.2 mph - 0.05 in Rain Light Rain
4:36 AM 66.0 °F 64.9 °F 96% 29.74 in 5.0 mi ESE 6.9 mph - 0.05 in Rain Light Rain
4:54 AM 66.9 °F 64.9 °F 93% 29.73 in 6.0 mi ENE 5.8 mph - 0.05 in Rain Light Rain
5:21 AM 66.9 °F 64.9 °F 93% 29.75 in 5.0 mi Calm Calm - 0.01 in Rain Rain
5:38 AM 66.9 °F 64.9 °F 93% 29.75 in 10.0 mi Calm Calm - 0.01 in Rain Light Rain
5:54 AM 66.9 °F 64.9 °F 93% 29.74 in 10.0 mi Calm Calm - 0.01 in   Overcast
6:54 AM 64.9 °F 64.0 °F 97% 29.75 in 8.0 mi WNW 3.5 mph - N/A   Scattered Clouds
7:37 AM 66.9 °F 64.9 °F 93% 29.76 in 7.0 mi NW 4.6 mph - N/A   Mostly Cloudy
7:50 AM 66.2 °F 64.4 °F 94% 29.77 in 6.0 mi NW 5.8 mph - N/A   Overcast
7:54 AM 66.9 °F 64.9 °F 93% 29.75 in 6.0 mi NW 4.6 mph - N/A   Overcast
8:37 AM 69.1 °F 66.0 °F 90% 29.77 in 10.0 mi NW 6.9 mph - N/A   Overcast
8:54 AM 69.1 °F 66.0 °F 90% 29.76 in 10.0 mi WNW 6.9 mph - N/A   Overcast
9:14 AM 70.0 °F 66.0 °F 87% 29.78 in 10.0 mi WNW 9.2 mph - N/A   Overcast
9:54 AM 70.0 °F 64.9 °F 84% 29.77 in 10.0 mi WNW 10.4 mph - N/A   Mostly Cloudy
10:43 AM 70.0 °F 64.9 °F 84% 29.79 in 10.0 mi WNW 4.6 mph - N/A   Overcast
10:54 AM 70.0 °F 66.0 °F 87% 29.78 in 10.0 mi WNW 5.8 mph - N/A   Overcast
11:09 AM 70.0 °F 66.0 °F 87% 29.80 in 10.0 mi WNW 9.2 mph - N/A   Overcast
11:17 AM 71.1 °F 66.0 °F 84% 29.80 in 10.0 mi WNW 8.1 mph - N/A   Overcast
11:29 AM 71.1 °F 66.0 °F 84% 29.80 in 10.0 mi NW 11.5 mph - N/A   Overcast
11:54 AM 71.1 °F 66.0 °F 84% 29.78 in 10.0 mi NW 8.1 mph - N/A   Overcast
12:21 PM 73.0 °F 64.9 °F 76% 29.79 in 10.0 mi NW 11.5 mph - N/A   Overcast
12:54 PM 73.0 °F 66.0 °F 79% 29.78 in 10.0 mi NW 11.5 mph - N/A   Overcast
1:34 PM 75.0 °F 66.0 °F 73% 29.80 in 10.0 mi NNW 9.2 mph - N/A   Overcast
1:42 PM 75.0 °F 66.0 °F 73% 29.80 in 10.0 mi NNW 8.1 mph - N/A   Overcast
1:54 PM 75.0 °F 64.9 °F 71% 29.79 in 10.0 mi NW 6.9 mph - N/A   Overcast
2:28 PM 75.0 °F 64.9 °F 71% 29.81 in 10.0 mi West 10.4 mph - N/A   Overcast
2:54 PM 72.0 °F 64.0 °F 76% 29.80 in 10.0 mi NW 12.7 mph 24.2 mph N/A   Overcast
3:06 PM 73.9 °F 64.0 °F 71% 29.81 in 10.0 mi NNW 13.8 mph - N/A   Overcast
3:54 PM 75.0 °F 64.9 °F 71% 29.81 in 10.0 mi NNW 12.7 mph 21.9 mph N/A   Clear
4:43 PM 73.0 °F 64.0 °F 73% 29.83 in 10.0 mi NNW 15.0 mph - N/A   Mostly Cloudy
4:50 PM 73.4 °F 64.4 °F 73% 29.83 in 10.0 mi NW 12.7 mph - N/A   Scattered Clouds
4:54 PM 71.1 °F 64.0 °F 78% 29.82 in 10.0 mi NW 13.8 mph - N/A   Scattered Clouds
5:06 PM 71.1 °F 64.0 °F 78% 29.84 in 10.0 mi NW 10.4 mph - N/A   Mostly Cloudy
5:54 PM 70.0 °F 63.0 °F 78% 29.84 in 10.0 mi North 10.4 mph - N/A   Overcast
6:54 PM 66.9 °F 62.1 °F 84% 29.86 in 10.0 mi NNW 8.1 mph - N/A   Overcast
7:08 PM 66.9 °F 62.1 °F 84% 29.87 in 10.0 mi NW 8.1 mph - N/A   Overcast
7:54 PM 66.0 °F 61.0 °F 84% 29.87 in 10.0 mi North 9.2 mph - N/A   Overcast
8:06 PM 66.0 °F 61.0 °F 84% 29.88 in 10.0 mi North 6.9 mph - N/A   Overcast
8:17 PM 66.0 °F 61.0 °F 84% 29.89 in 10.0 mi North 4.6 mph - N/A   Overcast
8:54 PM 64.9 °F 60.1 °F 84% 29.89 in 10.0 mi North 6.9 mph - N/A   Overcast
9:54 PM 64.9 °F 60.1 °F 84% 29.90 in 10.0 mi North 3.5 mph - N/A   Overcast
10:05 PM 64.9 °F 60.1 °F 84% 29.90 in 10.0 mi Calm Calm - N/A   Overcast
10:54 PM 64.9 °F 60.1 °F 84% 29.90 in 10.0 mi NNE 3.5 mph - N/A   Overcast
11:54 PM 64.0 °F 60.1 °F 87% 29.91 in 10.0 mi ENE 4.6 mph - N/A   Overcast